RH
71 70 72 70 69 78 54 72 47 31 35 49 60 60 53 48 49 34 38 47 71 82 69 67 57 60 69 41 56 76 68 84 76 52 41 50 48 48 50 55 52 57 43 41
82 88 84 81 82 84 69 73 63 42 37 35 36 41 48 48 44 42 39 42 48 38 50 62 51 51 38 32 41 48 54 84 82 50 40 49 69 57 55 47 43 43 59 41
86 79 73 76 86 75 57 68 64 45 61 63 60 70 54 51 43 49 42 44 37 43 46 43 54 49 38 38 38 44 43 75 74 81 47 64 82 61 52 58 69 51 53 42
84 90 82 83 85 76 62 77 76 74 54 47 54 71 56 59 46 39 38 43 42 44 69 50 47 38 40 38 42 42 52 78 55 71 61 59 77 78 82 86 64 53 40 37
92 90 96 93 80 82 77 74 70 79 68 63 68 54 53 55 47 46 48 51 44 46 65 57 74 55 52 55 42 45 41 65 48 62 42 44 54 52 59 68 59 66 53 43
74 83 92 95 87 86 92 96 98 92 63 83 75 53 51 51 46 44 45 48 54 57 49 48 45 46 49 52 58 59 58 70 64 72 36 34 45 33 40 44 55 50 61 46
72 70 68 78 85 92 98 100 99 97 71 62 62 67 54 52 50 59 53 50 72 56 40 58 49 47 47 47 48 48 64 66 69 82 49 76 28 18 25 36 46 43 42 38
78 76 77 71 70 89 100 99 99 100 81 56 56 57 52 54 50 59 60 51 45 42 59 85 69 40 30 28 29 42 56 89 90 86 64 41 28 24 29 34 36 31 33 32
77 75 80 78 74 86 97 97 91 98 97 59 43 61 62 77 75 65 55 47 47 56 69 72 78 61 45 72 45 75 43 85 91 73 87 73 32 20 18 19 33 22 22 31
80 82 82 82 80 85 90 91 85 99 97 65 61 69 80 82 92 89 64 62 65 55 71 76 61 50 43 63 67 75 63 70 87 86 87 56 29 24 25 40 26 21 26 31
80 74 80 82 69 84 88 96 91 95 93 76 66 68 90 85 89 91 70 79 76 84 88 75 50 56 48 73 55 85 88 90 74 60 75 82 59 54 39 36 31 33 32 31
75 73 77 72 72 84 86 83 84 91 99 84 84 82 81 89 88 97 92 74 78 84 90 83 84 78 68 83 77 78 86 87 89 86 62 46 73 87 78 65 26 35 44 40
68 73 77 86 80 82 78 87 96 93 96 76 72 72 65 72 79 88 97 85 83 91 75 86 86 93 84 87 87 65 58 57 88 93 78 87 88 85 72 59 64 65 54 58
75 86 84 77 82 79 88 81 84 96 94 91 64 64 66 80 78 90 94 93 93 99 97 95 90 90 88 81 79 76 80 84 89 87 86 86 86 98 67 66 66 69 66 68
80 79 83 85 88 89 92 77 85 96 98 84 63 76 63 70 82 79 96 92 96 95 94 88 90 82 86 66 57 81 92 93 93 90 94 94 96 97 94 92 93 89 86 88
83 86 88 91 94 96 90 80 85 85 100 99 83 67 62 67 80 61 82 92 86 90 83 88 89 85 72 82 88 90 92 93 94 94 96 95 95 95 96 96 96 91 92 91
88 90 89 71 64 65 82 79 96 93 93 86 83 77 60 80 88 66 60 58 72 78 79 82 68 68 71 78 89 93 93 94 94 93 89 88 93 95 95 95 96 94 95 96
91 87 60 62 50 67 77 72 98 76 79 76 82 78 61 87 80 81 71 70 64 68 72 61 64 55 69 90 93 93 91 87 90 92 92 93 90 90 93 93 90 90 94 93
53 45 48 57 48 75 77 74 90 62 65 88 77 88 88 78 70 87 92 73 78 76 77 70 57 79 93 95 94 93 94 95 95 87 81 80 86 87 86 83 83 89 92 89
38 39 39 66 61 50 40 38 58 70 78 81 84 66 90 91 79 85 85 72 77 88 72 59 83 92 91 94 94 94 91 88 84 85 88 84 83 82 78 79 73 67 66 65
54 88 80 69 38 36 62 75 78 76 79 78 84 80 89 79 91 90 84 80 70 80 66 68 74 85 93 88 88 82 78 73 71 68 65 64 68 69 70 68 69 70 67 67
83 97 91 46 61 70 67 81 70 74 82 76 82 77 77 85 92 93 80 76 69 74 62 68 82 91 89 88 85 77 69 65 65 69 69 67 66 70 68 71 71 72 76 73
62 54 69 68 74 70 93 99 80 87 80 85 87 87 77 80 88 87 80 81 85 66 79 84 91 90 87 86 78 69 65 65 65 66 69 71 74 76 76 75 80 78 74 81
76 75 77 87 89 84 84 83 87 75 88 84 88 87 91 79 78 76 74 87 63 79 82 87 89 92 89 75 69 69 70 69 71 74 76 78 78 79 81 85 85 84 84 81
85 80 99 89 83 86 86 89 92 79 81 86 83 82 71 77 77 69 68 76 86 79 87 88 87 89 93 75 68 75 85 83 84 84 87 86 83 80 82 86 91 92 90 91
87 91 84 79 82 84 86 90 91 77 79 82 77 80 75 84 83 78 88 77 87 88 89 84 74 77 81 74 72 72 78 84 90 85 85 84 84 87 90 89 90 95 94 95
86 91 83 89 92 92 87 81 77 76 89 89 83 90 100 82 85 88 81 88 89 88 80 67 69 76 72 79 70 74 76 79 79 80 82 88 89 85 80 81 85 93 90 93
Wind_Speed
23 24 25 27 28 30 26 8 3 26 19 5 3 2 7 7 6 7 4 4 2 3 6 8 8 12 8 17 13 9 8 6 10 19 9 13 20 15 19 9 12 5 9 9
23 24 22 24 24 25 16 3 3 11 14 5 6 6 5 4 6 7 5 4 4 7 6 6 9 7 11 18 7 8 8 4 6 16 14 8 11 17 16 20 12 19 10 8
21 22 22 21 23 22 13 2 3 3 4 1 2 5 5 6 5 8 5 9 10 7 11 12 9 15 10 16 16 22 11 9 16 15 17 16 9 16 23 23 15 22 19 17
23 22 22 18 19 19 10 3 2 1 5 5 9 2 4 10 10 5 7 6 8 13 11 15 19 15 19 20 17 16 5 11 17 22 24 26 21 22 23 20 28 22 24 22
25 25 21 18 19 15 3 3 2 2 7 8 8 5 8 12 15 10 12 13 18 17 16 17 19 21 21 16 18 16 14 15 18 23 26 26 29 29 24 25 25 26 27 26
26 26 25 22 19 16 3 4 3 3 4 5 6 12 12 16 15 14 16 16 15 17 20 19 19 19 20 21 24 26 21 17 19 25 27 25 22 28 28 26 26 25 23 22
25 25 25 25 22 17 6 6 5 3 9 9 13 14 17 19 21 21 22 18 16 19 19 18 18 18 22 23 25 23 24 22 15 18 21 23 18 21 21 20 24 27 27 24
26 26 25 24 24 21 14 10 4 2 8 12 17 17 18 18 19 19 18 23 17 17 11 8 9 10 14 15 15 16 15 16 6 10 16 24 24 22 20 18 22 22 24 23
28 27 27 24 23 23 16 16 11 5 5 11 9 18 19 15 15 20 18 15 14 5 5 5 4 10 14 5 7 6 9 13 10 11 11 22 22 25 28 23 24 21 23 24
29 28 27 25 23 23 22 17 11 6 6 11 8 11 12 7 6 7 10 4 3 7 4 5 6 10 8 7 9 10 11 10 14 15 16 16 21 22 16 23 9 21 23 26
29 28 26 25 25 26 24 18 15 9 4 11 15 12 12 13 10 5 4 4 2 3 4 3 4 5 5 6 12 12 10 6 7 8 12 10 16 16 21 13 3 8 11 14
28 27 27 27 28 27 24 14 14 11 6 9 19 23 22 18 19 7 3 4 2 3 3 2 3 5 7 6 12 9 4 6 7 6 8 24 29 24 30 24 19 13 6 11
29 29 28 29 28 26 20 11 10 4 2 5 3 8 16 18 15 12 5 3 4 4 4 2 3 5 5 6 4 8 15 9 5 15 7 17 30 31 14 11 6 9 10 19
30 30 30 28 26 20 15 4 8 4 4 3 2 12 12 16 28 19 13 15 7 2 1 2 3 3 8 6 6 7 10 12 15 18 16 28 16 10 10 15 18 20 20 20
31 32 31 27 18 12 4 3 3 16 5 3 5 2 7 22 27 28 18 8 5 1 1 4 4 3 4 3 4 6 12 10 9 6 21 17 19 21 14 20 19 18 24 23
34 32 27 18 12 8 2 1 1 22 11 3 3 3 16 27 21 27 26 20 8 4 4 4 3 6 4 5 6 15 20 16 13 8 12 19 18 25 24 21 22 22 23 23
34 28 19 8 7 5 4 3 13 14 6 2 3 3 5 15 6 17 12 20 8 6 4 5 5 5 3 4 7 19 20 18 21 22 15 25 29 18 22 22 21 32 31 29
33 21 7 3 5 4 3 11 14 13 2 5 3 4 4 10 4 3 5 9 9 8 5 5 7 3 4 5 17 17 19 17 21 23 22 19 20 25 27 30 25 26 23 20
24 11 2 1 4 5 7 13 4 9 7 3 3 6 4 7 3 2 1 2 5 3 6 6 6 6 7 10 15 17 19 16 17 18 20 21 23 22 22 23 24 23 20 18
17 7 2 3 6 15 3 3 3 5 5 4 3 5 3 3 3 2 2 2 3 2 5 3 5 6 10 14 14 13 14 15 16 18 22 20 21 19 20 20 17 15 15 20
9 8 2 8 11 5 6 4 5 4 4 5 4 4 6 3 3 3 4 2 2 3 5 3 4 5 9 14 13 13 18 19 19 18 18 19 17 15 16 17 22 23 23 21
9 7 5 6 7 4 5 4 3 4 4 5 7 7 5 3 3 2 4 3 2 4 2 3 3 6 11 12 13 14 19 22 21 22 20 21 21 20 19 18 19 19 19 19
2 2 4 4 5 10 5 7 4 6 5 4 8 8 4 3 2 1 3 4 3 1 3 2 3 7 9 11 12 14 20 21 21 21 21 19 18 18 17 16 17 16 16 16
3 4 7 4 4 3 1 3 4 4 4 9 8 4 2 3 3 3 4 2 2 3 3 3 4 8 9 11 13 11 15 21 20 20 20 19 18 17 16 14 13 13 12 12
4 4 4 4 2 3 3 3 4 3 5 6 4 3 2 3 3 3 2 4 4 3 2 3 6 7 6 11 11 12 13 17 17 18 17 18 18 17 16 15 12 12 11 10
3 6 3 3 2 4 3 2 4 3 7 3 1 2 3 5 3 4 5 2 3 2 3 5 6 7 8 11 15 16 15 15 16 16 16 15 16 16 15 14 14 15 13 12
4 2 1 2 2 3 4 4 4 11 3 3 2 5 3 2 3 4 4 3 3 5 5 5 6 7 10 15 16 16 15 15 16 16 16 15 15 15 15 16 18 17 15 14
Wind_Direction
1 0 2 359 358 355 356 339 22 353 7 54 35 33 337 331 338 359 317 296 330 349 337 297 282 287 320 4 354 351 2 294 260 244 237 238 234 236 210 217 199 246 273 244
349 349 354 351 354 1 354 5 319 358 15 39 9 343 311 283 327 344 332 299 5 318 307 309 295 299 312 326 358 358 342 306 296 254 229 214 235 235 244 242 265 237 221 234
345 346 347 351 358 4 3 345 346 354 38 49 1 335 336 319 307 294 270 301 301 302 296 290 283 284 292 302 302 299 274 245 254 269 282 330 277 255 233 227 228 238 232 243
343 341 338 349 355 1 354 8 64 354 326 328 316 248 276 296 301 288 303 277 265 303 291 292 288 291 303 294 282 284 244 259 273 282 287 291 290 296 292 244 235 238 240 231
347 350 345 347 350 355 20 329 322 186 275 285 251 279 277 272 288 272 270 280 286 300 287 285 293 289 280 284 291 270 263 270 278 279 274 276 278 281 276 283 257 247 252 254
343 347 347 342 340 350 333 257 244 226 289 244 240 275 269 276 284 280 269 285 284 284 281 291 292 286 281 273 276 272 264 259 261 264 273 278 265 251 259 266 263 249 245 244
339 337 335 341 339 340 307 258 239 258 289 276 273 274 281 278 279 285 280 279 270 268 286 302 280 269 265 264 264 258 260 255 248 255 267 261 265 261 257 264 256 243 245 250
336 335 334 333 331 331 318 295 237 239 285 292 287 271 287 291 285 275 268 281 272 271 298 270 284 287 284 286 264 255 236 249 242 244 248 256 257 258 227 240 257 241 245 244
338 332 335 330 330 327 325 300 283 252 281 279 303 297 292 283 277 283 275 259 264 247 258 262 270 302 308 303 312 175 303 225 225 231 257 259 255 249 238 246 257 259 264 248
333 333 333 331 330 333 327 308 294 243 269 283 292 281 291 287 256 250 286 278 218 206 247 261 277 289 300 289 301 304 306 295 272 249 266 262 258 265 284 214 236 230 236 238
335 334 333 334 330 331 329 307 297 243 269 287 276 281 285 290 294 296 350 283 187 207 225 255 299 281 303 286 289 289 300 327 302 306 292 271 14 307 243 258 222 278 270 245
338 336 334 335 330 330 332 306 317 292 236 282 302 294 291 280 270 279 235 264 214 240 258 261 288 282 287 279 307 22 17 338 304 291 279 309 311 295 283 285 259 276 241 141
339 337 333 331 332 333 333 328 348 315 264 288 331 33 18 26 358 296 270 230 215 206 214 253 278 276 332 9 49 6 341 338 287 310 293 300 296 298 244 248 141 105 138 119
337 337 334 332 333 335 338 47 52 13 286 288 106 25 46 24 23 358 301 267 259 127 234 279 295 353 15 26 349 16 344 307 317 287 293 316 344 357 92 98 92 91 90 90
339 336 333 332 336 334 8 102 67 15 318 309 311 330 24 10 16 9 11 230 230 176 5 47 37 35 356 1 4 13 346 334 338 314 321 339 351 14 51 81 82 83 88 82
338 336 333 337 344 334 156 248 295 343 346 305 327 57 13 1 25 28 33 42 49 73 64 58 37 346 44 15 19 346 346 344 347 340 331 10 13 26 28 57 66 70 73 75
339 337 338 358 8 31 47 60 339 339 340 352 328 36 18 347 17 44 48 51 54 56 61 41 22 25 28 50 20 340 344 349 4 12 7 19 20 22 30 39 52 61 63 62
338 337 350 34 44 85 70 357 345 348 53 41 40 338 338 8 336 37 23 60 55 43 59 51 29 36 44 37 353 349 354 355 8 13 20 27 25 27 29 32 40 50 49 49
338 341 18 112 34 17 317 333 332 24 57 79 39 347 336 342 326 306 276 59 58 54 58 45 35 31 43 352 354 1 359 1 353 7 21 24 29 28 29 31 33 41 41 41
343 359 37 19 352 326 351 23 23 24 1 25 45 339 321 306 318 321 330 65 57 49 39 75 39 50 26 6 4 2 357 1 4 16 19 14 20 22 26 30 32 37 39 43
357 19 10 323 350 26 34 36 31 342 35 6 347 357 334 324 325 339 21 77 54 54 19 50 27 25 9 352 354 358 3 7 15 22 25 25 26 22 24 26 30 32 35 36
308 303 318 350 24 36 54 10 357 24 355 338 339 335 322 305 298 305 7 83 56 74 8 52 30 6 353 350 348 355 3 7 11 16 16 19 24 23 26 26 25 27 30 29
308 43 49 19 338 39 44 350 333 334 341 344 330 327 327 299 335 357 40 69 57 21 50 52 27 348 350 348 347 353 2 8 10 9 10 11 13 17 19 17 16 18 24 24
57 39 29 49 17 32 307 300 287 289 293 317 319 308 324 315 5 356 61 35 53 65 50 36 1 353 343 347 352 357 357 1 2 2 2 6 6 3 4 8 6 7 11 11
60 45 45 42 328 266 289 292 299 274 300 316 311 293 324 354 46 38 53 46 58 49 43 359 346 340 334 349 351 350 348 350 351 353 355 357 0 0 358 360 359 0 358 359
61 46 33 348 345 328 328 315 299 336 327 308 322 349 47 46 16 30 26 57 44 23 345 333 337 342 345 345 344 344 343 343 342 348 349 352 356 352 346 351 1 359 358 350
45 33 298 325 280 285 314 318 315 330 323 20 10 44 355 305 47 31 20 37 356 326 320 333 329 335 341 337 337 338 338 339 341 341 342 342 346 349 357 358 352 350 351 349